Weather Roundup
Issued by NWS Corpus Christi, TX

Home | Current Version | Previous Version | Text Only | Print | Product List | Glossary On
Versions: 1 2 3 4 5 6 7 8 9 10 11 12 13 14 15 16 17 18 19 20 21 22 23 24 25 26 27 28 29 30 31 32 33 34 35 36 37 38 39 40 41 42 43 44 45 46 47 48 49 50
000
ASUS44 KCRP 221110
HRRCRP

SOUTH TEXAS REGIONAL WEATHER ROUNDUP
NATIONAL WEATHER SERVICE CORPUS CHRISTI TX
600 AM CDT FRI MAY 22 2015


TXZ229>244-221200-
...CORPUS CHRISTI AREA OBSERVATIONS...

CITY           SKY/WX    TMP DP  RH WIND       PRES   REMARKS
CORPUS CHRISTI CLOUDY    75  73  93 CALM      30.01S
NAS CORPUS CHR CLOUDY    75  75 100 SE7       30.01S
ROCKPORT       LGT RAIN  76  72  87 SE10      30.01R
KINGSVILLE NAS CLOUDY    74  74 100 CALM      30.00F
ALICE          MOCLDY    74  72  93 E5        30.00S
FALFURRIAS     CLOUDY    74  73  96 CALM      30.00F VSB 3/4
$$

...VICTORIA AREA OBSERVATIONS...

CITY           SKY/WX    TMP DP  RH WIND       PRES   REMARKS
VICTORIA       CLOUDY    71  69  93 NE10      30.05F
BEEVILLE       CLOUDY    70  70 100 NE7       30.02F FOG
PLEASANTON     CLOUDY    65  63  93 NE8       30.05S FOG
SAN ANTONIO    DRIZZLE   65  63  93 E9        30.06S FOG
$$

...LAREDO AREA OBSERVATIONS...

CITY           SKY/WX    TMP DP  RH WIND       PRES   REMARKS
LAREDO         CLOUDY    73  71  93 NE7       30.01R
COTULLA        CLOUDY    69  67  93 E8        30.02R FOG
DEL RIO        LGT RAIN  68  66  93 E10       30.02R FOG
MCALLEN        CLOUDY    77  73  87 SE7       30.02F
HEBBRONVILLE     N/A     73  72  96 SE9       30.00F FOG
$$

...OTHER TEXAS OBSERVATIONS...

CITY           SKY/WX    TMP DP  RH WIND       PRES   REMARKS
BROWNSVILLE    CLOUDY    76  75  97 CALM      30.03S FOG
HOUSTON        CLOUDY    68  65  90 E10       30.11R
COL. STATION   CLOUDY    65  64  97 E9        30.10S FOG
AUSTIN         DRZL/FOG  63  63 100 NE6       30.08F VSB 1/4
WACO           CLOUDY    61  60  97 E7        30.13R
FORT WORTH     CLOUDY    60  58  92 E9        30.13S
WICHITA FALLS  CLOUDY    57  55  93 E13       30.13S
LUBBOCK        LGT RAIN  52  51  97 NE9       30.10F
EL PASO        MOCLDY    58  51  78 N5        30.04S
$$

...MARINE OBSERVATIONS...

STATION/POSITION TIME  SKY/WX   TEMP    WIND        PRES    VSBY  WAVE   SWELL
                                AIR SEA DIR/SP/G                  HT/PER HT/PER
                 (UTC)          (F)     (DEG/KT/KT) (MB)    (MI)  (FT/S) (FT/S)
PORT ARANSAS     1100            79 81  110/  8/  9 1016.7S
BUOY 90 E PORT A 1050            79 80   90/ 12/ 14 1017.2R         3/ 5
BUOY 45 SE BAFFI 1050            80 80  150/  8/ 10 1015.8S         3/ 5   2/ 5
BUOY 200 E PT IS 1050            81 81  140/ 10/ 12 1016.5R         2/ 5   2/ 5
BUOY 15 E GALVES 1050            73 80   60/ 17/ 21 1017.8R         4/ 5
$$


USA.gov is the U.S. government's official web portal to all federal, state and local government web resources and services.